Terug naar catalogus

STARLINK-37823

ActiefCommunicatieSSO
NORAD 69427·PAYLOAD·🇺🇸 United States

Gelanceerd Jun 7, 2026 vanaf Vandenberg Space Force Base

Loading…

Volgende Passages (komende 24 uur)

TLE

VersSource: CelesTrak SupGP

Epoch: Sep 14, 2026, 21:24 UTC

1 69427C 26126H   26257.89215278  .00027974  00000+0  86878-3 0  2574
2 69427  97.2847 119.2180 0002085  93.5108 342.8136 15.33409495    11

Volg STARLINK-37823 in realtime met AllMySat

Download on the App Store